User: anonymous   Login
Location: Alta
(39.2070°N, 120.8111°W)
Time: 09:22:02
(UTC+00:00)
Language:

JY1SAT - Orbit

View from above orbital plane
View from above orbital plane
View from above satellite
View from above satellite

Ground track
Ground track

The orbit data is extracted from the following two-line orbital elements,

1 43803U 18099AX  24259.57482445  .00021890  00000-0  13388-2 0  9991
2 43803  97.5113 316.3414 0008652   0.3518 359.7716 15.10221818316328
Epoch (UTC): 15 September 2024 13:47:44
Eccentricity: 0.0008652
inclination: 97.5113°
perigee height: 529 km
apogee height: 541 km
right ascension of ascending node: 316.3414°
argument of perigee: 0.3518°
revolutions per day: 15.10221818
mean anomaly at epoch: 359.7716°
orbit number at epoch: 31632

The dashed part of the orbit path shows where the satellite is in the earth's shadow,  

DLR